[[{"header":{"parameterUnit":"m.s-1","parameterCategory":1,"la1":30.2991,"la2":30.254,"lo1":-89.0895,"lo2":-89.0444,"dy":0.0017,"dx":0.0017,"nx":28,"ny":28,"refTime":"2024-08-31T09:00:00:Z","depth":0,"parameterNumber":2,"parameterNumberName":"U-component_of_WINDS"},"data":[0,0,0,0,0,0,0,0,0,0,0,0,0,0,0,0,0,0,0,0,0,0,0,0,0,0,0,0,0,0,0,0,0,0,0,0,0,0,0,0,0,0,0,0,0,0,0,0,0,0,0,0,0,0,0,0,0,0,-1.5173,-1.5175,0,-1.5324,-1.5326,-1.5328,-1.5401,-1.5401,-1.5401,-1.5401,-1.5556,-1.556,-1.5565,0,0,0,0,0,0,0,0,0,0,0,0,0,-1.4948,-1.4952,-1.5173,-1.5175,-1.5177,-1.5324,-1.5326,-1.5328,-1.5401,-1.5401,-1.5401,-1.5401,-1.5555,-1.556,-1.5565,0,0,0,0,0,0,0,0,0,0,0,0,0,-1.5067,-1.4953,-1.5173,-1.5231,-1.5237,-1.5324,-1.5326,-1.5329,-1.5401,-1.5401,-1.5401,-1.5401,-1.5553,-1.5559,-1.5566,-1.5606,0,0,-1.5585,-1.5587,0,0,0,0,0,0,0,0,-1.506,-1.5075,-1.522,-1.5227,-1.5235,-1.5344,-1.5304,-1.5422,-1.5401,-1.5339,-1.5401,-1.5401,-1.5486,-1.5497,-1.5526,-1.5613,-1.562,-1.5585,-1.5589,-1.5592,-1.5594,0,0,0,0,0,0,0,-1.5052,-1.5069,-1.5233,-1.5222,-1.5231,-1.525,-1.5267,-1.5327,-1.5411,-1.5344,-1.535,-1.5367,-1.549,-1.552,-1.553,-1.5622,-1.5585,-1.5591,-1.5595,-1.5597,-1.5751,-1.5752,0,0,0,0,0,0,-1.5034,-1.5062,-1.5228,-1.5237,-1.5146,-1.5254,-1.5273,-1.5309,-1.541,-1.5426,-1.5367,-1.537,-1.5509,-1.5523,-1.5536,-1.5591,-1.5592,-1.5598,-1.5601,-1.5751,-1.5751,-1.5752,0,0,0,0,0,0,-1.5029,-1.5048,-1.5222,-1.5151,-1.5175,-1.5258,-1.5298,-1.5312,-1.5342,-1.5427,-1.5443,-1.5382,-1.551,-1.5527,-1.5588,-1.5597,-1.56,-1.5606,-1.5751,-1.5751,-1.5751,-1.57,0,0,0,0,0,0,-1.5022,-1.5046,-1.5062,-1.5151,-1.5178,-1.5271,-1.5298,-1.5315,-1.5353,-1.5358,-1.5446,-1.546,-1.5511,-1.5578,-1.5594,-1.5606,-1.5611,-1.575,-1.5751,-1.5751,-1.5701,-1.5698,-1.5696,0,0,0,0,0,-1.5014,-1.5041,-1.5062,-1.5082,-1.5199,-1.5271,-1.5287,-1.5344,-1.5353,-1.537,-1.5425,-1.5458,-1.5594,-1.5584,-1.5603,-1.5616,-1.575,-1.5751,-1.5751,-1.5702,-1.5699,-1.5696,0,0,0,0,0,0,-1.495,-1.5053,-1.5078,-1.5134,-1.5193,-1.5283,-1.5306,-1.5339,-1.5397,-1.5399,-1.5469,-1.5488,-1.5543,-1.5586,-1.5573,-1.5661,-1.5675,-1.5679,-1.5631,-1.5629,-1.5626,-1.5615,-1.5616,0,0,0,0,0,-1.4942,-1.4991,-1.5079,-1.5121,-1.5149,-1.5222,-1.5256,-1.5295,-1.5359,-1.5384,-1.5444,-1.5505,-1.5562,-1.5598,-1.5655,-1.5708,-1.5729,-1.5726,-1.5724,-1.5721,-1.5724,-1.5757,-1.5758,-1.5754,-1.5754,-1.5754,0,0,-1.4927,-1.4989,-1.5016,-1.5109,-1.516,-1.521,-1.5243,-1.5294,-1.5332,-1.5392,-1.5454,-1.55,-1.5573,-1.563,-1.5658,-1.5668,-1.573,-1.5722,-1.572,-1.5724,-1.5758,-1.5758,-1.5759,-1.5755,-1.5755,-1.5755,0,0,-1.4924,-1.4976,-1.5017,-1.5067,-1.5143,-1.5192,-1.5202,-1.5288,-1.532,-1.5383,-1.543,-1.5477,-1.5572,-1.5623,-1.5661,-1.568,-1.5713,-1.5696,-1.5684,-1.5715,-1.5715,-1.5716,-1.5723,-1.5725,-1.5699,-1.5699,-1.5699,0,-1.4896,-1.4973,-1.5034,-1.5083,-1.5123,-1.518,-1.5223,-1.5268,-1.5359,-1.5386,-1.5395,-1.5517,-1.557,-1.5641,-1.5646,-1.5675,-1.5689,-1.5687,-1.571,-1.5711,-1.5713,-1.5721,-1.5724,-1.5697,-1.5697,-1.5697,-1.5698,0,-1.4934,-1.4987,-1.5011,-1.5098,-1.514,-1.5186,-1.5254,-1.5291,-1.5327,-1.5375,-1.5439,-1.5505,-1.5577,-1.5596,-1.5632,-1.5673,-1.5676,-1.5697,-1.5712,-1.571,-1.5719,-1.5722,-1.5693,-1.5694,-1.5695,-1.5696,0,0,-1.4895,-1.5016,-1.5023,-1.5064,-1.5153,-1.5195,-1.5244,-1.5314,-1.5344,-1.5405,-1.5449,-1.5529,-1.5549,-1.5593,-1.5635,-1.5662,-1.5674,-1.568,-1.5682,-1.5677,-1.5725,-1.5709,-1.5712,-1.5696,-1.5697,-1.5698,-1.5719,0,-1.4906,-1.4995,-1.5052,-1.5119,-1.5169,-1.5225,-1.5268,-1.5327,-1.5374,-1.5424,-1.5476,-1.5532,-1.5554,-1.5581,-1.561,-1.5666,-1.5685,-1.5665,-1.5738,-1.574,-1.5718,-1.5716,-1.5699,-1.5716,-1.5723,-1.5723,-1.5724,0,-1.493,-1.499,-1.5061,-1.5146,-1.5169,-1.5206,-1.5277,-1.5323,-1.5393,-1.5425,-1.5474,-1.5517,-1.5571,-1.5582,-1.5659,-1.5645,-1.5678,-1.571,-1.5712,-1.5721,-1.5731,-1.5726,-1.5723,-1.5725,-1.573,-1.5729,-1.5729,0,-1.4895,-1.4994,-1.505,-1.5083,-1.5182,-1.5207,-1.525,-1.532,-1.5359,-1.542,-1.5447,-1.5513,-1.555,-1.5601,-1.5662,-1.5664,-1.5733,-1.5748,-1.5762,-1.576,-1.5774,-1.5772,-1.5777,-1.5794,-1.5794,-1.5794,-1.5794,0,-1.4901,-1.4943,-1.5036,-1.507,-1.5119,-1.5185,-1.5232,-1.5279,-1.5341,-1.5386,-1.5439,-1.548,-1.5557,-1.5609,-1.5656,-1.5713,-1.5729,-1.5758,-1.577,-1.5753,-1.5749,-1.5776,-1.5776,-1.5795,-1.5795,-1.5795,-1.5795,0,-1.487,-1.4934,-1.4999,-1.5088,-1.5112,-1.5144,-1.5221,-1.5258,-1.5307,-1.5364,-1.5382,-1.546,-1.5524,-1.5589,-1.5674,-1.5707,-1.5763,-1.5779,-1.5739,-1.5746,-1.5756,-1.5754,-1.5778,-1.5785,-1.5797,-1.5797,-1.5796,0,-1.487,-1.4904,-1.4997,-1.5031,-1.5073,-1.5127,-1.5168,-1.5234,-1.5274,-1.5357,-1.5383,-1.545,-1.5508,-1.5607,-1.5672,-1.5738,-1.5757,-1.5761,-1.5767,-1.575,-1.5758,-1.5756,-1.576,-1.5758,-1.5758,-1.5757,-1.5757,0,-1.4863,-1.4893,-1.4949,-1.5017,-1.5064,-1.512,-1.5179,-1.5204,-1.5282,-1.5325,-1.539,-1.5435,-1.5523,-1.559,-1.5664,-1.5709,-1.5747,-1.5755,-1.5762,-1.5745,-1.5721,-1.5735,-1.5733,-1.5754,-1.5754,-1.5754,-1.5754,-1.5755,-1.4849,-1.4882,-1.4953,-1.5014,-1.5065,-1.5119,-1.5157,-1.5213,-1.5268,-1.5345,-1.5381,-1.5447,-1.5517,-1.5621,-1.5666,-1.5719,-1.5729,-1.5739,-1.5742,-1.5743,-1.5739,-1.5712,-1.5733,-1.5733,-1.5733,-1.5733,-1.5733,0,-1.4845,-1.4894,-1.495,-1.503,-1.5078,-1.5109,-1.5176,-1.5215,-1.5272,-1.5334,-1.539,-1.5466,-1.5531,-1.5602,-1.5672,-1.5701,-1.572,-1.5717,-1.5716,-1.5726,-1.5726,-1.5713,-1.5701,-1.5701,-1.5701,-1.5701,-1.5701,-1.5701,-1.4849,-1.4907,-1.4946,-1.503,-1.5079,-1.5144,-1.5179,-1.523,-1.528,-1.5362,-1.5417,-1.5462,-1.5529,-1.5604,-1.5666,-1.5685,-1.5709,-1.5701,-1.5725,-1.5723,-1.5726,-1.5728,-1.5717,-1.5705,-1.5705,-1.5721,-1.5721,-1.5722]},{"header":{"parameterUnit":"m.s-1","parameterCategory":1,"la1":30.2991,"la2":30.254,"lo1":-89.0895,"lo2":-89.0444,"dy":0.0017,"dx":0.0017,"nx":28,"ny":28,"refTime":"2024-08-31T09:00:00:Z","depth":0,"parameterNumber":3,"parameterNumberName":"V-component_of_WINDS"},"data":[0,0,0,0,0,0,0,0,0,0,0,0,0,0,0,0,0,0,0,0,0,0,0,0,0,0,0,0,0,0,0,0,0,0,0,0,0,0,0,0,0,0,0,0,0,0,0,0,0,0,0,0,0,0,0,0,0,0,3.5705,3.5704,0,3.5575,3.5573,3.5572,3.5473,3.5472,3.5472,3.5471,3.5332,3.533,3.5327,0,0,0,0,0,0,0,0,0,0,0,0,0,3.5865,3.5863,3.5705,3.5704,3.5702,3.5575,3.5573,3.5571,3.5474,3.5472,3.5471,3.547,3.5333,3.533,3.5326,0,0,0,0,0,0,0,0,0,0,0,0,0,3.5771,3.5862,3.5705,3.5638,3.5631,3.5575,3.5573,3.5571,3.5474,3.5472,3.5471,3.547,3.5334,3.533,3.5326,3.5326,0,0,3.5313,3.5311,0,0,0,0,0,0,0,0,3.5777,3.5765,3.565,3.5643,3.5634,3.5539,3.5578,3.5488,3.5474,3.5533,3.5471,3.5469,3.5402,3.5392,3.537,3.5319,3.5313,3.5312,3.531,3.5308,3.5307,0,0,0,0,0,0,0,3.5783,3.577,3.5653,3.5648,3.5639,3.5613,3.5598,3.5561,3.5476,3.5528,3.552,3.5507,3.5397,3.5375,3.5366,3.5311,3.5313,3.5309,3.5306,3.5304,3.5251,3.5252,0,0,0,0,0,0,3.5801,3.5776,3.5657,3.5649,3.5704,3.5611,3.5594,3.5571,3.5476,3.5461,3.5508,3.5503,3.5383,3.5371,3.5361,3.5352,3.5308,3.5304,3.5302,3.525,3.5251,3.5252,0,0,0,0,0,0,3.5805,3.5791,3.5663,3.5711,3.5693,3.5609,3.5584,3.5569,3.5546,3.5461,3.5445,3.55,3.5381,3.5367,3.5335,3.5346,3.5302,3.5298,3.5248,3.525,3.5252,3.5336,0,0,0,0,0,0,3.581,3.5793,3.5793,3.5712,3.569,3.5641,3.5585,3.5567,3.5539,3.5531,3.545,3.5435,3.5379,3.5342,3.5331,3.5339,3.5295,3.5247,3.5249,3.5251,3.5332,3.5341,3.5348,0,0,0,0,0,3.5816,3.5822,3.5794,3.578,3.5689,3.5642,3.5629,3.5566,3.5541,3.5539,3.5485,3.5438,3.5348,3.534,3.5326,3.5334,3.5246,3.5249,3.5251,3.5328,3.5339,3.5348,0,0,0,0,0,0,3.5905,3.581,3.5778,3.5758,3.5709,3.5625,3.5621,3.5579,3.5535,3.5529,3.545,3.5433,3.5408,3.5368,3.5361,3.5327,3.5291,3.5291,3.5354,3.5363,3.5371,3.538,3.5291,0,0,0,0,0,3.5923,3.5894,3.5812,3.5802,3.5779,3.5705,3.5682,3.5637,3.5582,3.5561,3.5504,3.5451,3.541,3.5385,3.5343,3.5327,3.5306,3.5325,3.5333,3.534,3.534,3.5326,3.5333,3.5261,3.5261,3.5261,0,0,3.5959,3.5903,3.5889,3.5819,3.5775,3.5745,3.5688,3.5659,3.5634,3.5555,3.5521,3.5478,3.5414,3.539,3.5376,3.5355,3.5356,3.5344,3.535,3.5346,3.5329,3.5336,3.5342,3.5263,3.5262,3.5262,0,0,3.6008,3.5964,3.595,3.5908,3.5844,3.5794,3.5791,3.5714,3.5682,3.5648,3.5587,3.5557,3.549,3.5446,3.5414,3.5447,3.5402,3.5436,3.5477,3.5464,3.5469,3.5474,3.5483,3.5488,3.5437,3.5437,3.5437,0,3.606,3.6013,3.5948,3.5922,3.5892,3.5821,3.5805,3.5767,3.5692,3.5671,3.565,3.5563,3.5515,3.5478,3.5486,3.5464,3.5456,3.5443,3.5474,3.5478,3.5481,3.5489,3.5493,3.5442,3.5441,3.5441,3.544,0,3.6079,3.6047,3.6044,3.5974,3.5943,3.5923,3.5853,3.583,3.5788,3.5741,3.5705,3.5645,3.5589,3.5578,3.5536,3.5534,3.5523,3.549,3.545,3.5494,3.5499,3.5502,3.5448,3.5446,3.5445,3.5444,0,0,3.6178,3.6074,3.6073,3.604,3.5964,3.5937,3.5913,3.5859,3.584,3.5791,3.5766,3.5711,3.5679,3.5644,3.5597,3.5587,3.5613,3.5553,3.5551,3.5564,3.5604,3.5628,3.5633,3.5584,3.5584,3.5585,3.5609,0,3.6213,3.6166,3.6107,3.6079,3.6048,3.5981,3.5959,3.5909,3.5864,3.583,3.578,3.5741,3.5703,3.5681,3.5668,3.5613,3.562,3.5611,3.5558,3.5557,3.5573,3.5636,3.5661,3.5687,3.5611,3.5611,3.5611,0,3.6246,3.6202,3.6172,3.6097,3.6082,3.6064,3.6009,3.5978,3.592,3.5888,3.5849,3.5799,3.5768,3.5736,3.569,3.5685,3.566,3.563,3.563,3.5619,3.5585,3.5625,3.5693,3.5696,3.5615,3.5615,3.5614,0,3.6319,3.6251,3.6223,3.6198,3.6111,3.6099,3.6062,3.6003,3.5974,3.5927,3.5907,3.5856,3.5827,3.5788,3.5725,3.5708,3.5686,3.5649,3.5656,3.5657,3.5651,3.5652,3.5714,3.5641,3.5641,3.5641,3.5641,0,3.6362,3.6345,3.6255,3.6237,3.6216,3.6148,3.6129,3.6085,3.6033,3.6005,3.5944,3.5919,3.5839,3.5803,3.5754,3.5722,3.571,3.5682,3.5668,3.5685,3.5689,3.5665,3.5661,3.5642,3.5641,3.5641,3.5641,0,3.6437,3.6376,3.6341,3.6263,3.6243,3.623,3.6162,3.6142,3.6094,3.6059,3.6047,3.5972,3.5927,3.5861,3.5796,3.5763,3.5738,3.5718,3.5758,3.5749,3.5759,3.5758,3.5805,3.5807,3.5737,3.5737,3.5738,0,3.6467,3.6453,3.6373,3.635,3.6316,3.6281,3.6251,3.6184,3.6155,3.6088,3.6075,3.6026,3.5983,3.5914,3.5852,3.5802,3.5778,3.5799,3.577,3.5787,3.5775,3.5775,3.5772,3.5804,3.5806,3.5806,3.5807,0,3.6526,3.6496,3.6457,3.6408,3.6375,3.6332,3.6286,3.6271,3.6193,3.6164,3.6118,3.6085,3.6019,3.597,3.5911,3.5871,3.5825,3.5817,3.5816,3.5831,3.5854,3.5839,3.5773,3.5816,3.5815,3.5814,3.5814,3.5813,3.6577,3.656,3.6501,3.6459,3.6418,3.6377,3.6354,3.6304,3.6265,3.6207,3.6169,3.6125,3.6066,3.5982,3.5945,3.5908,3.5888,3.5887,3.5886,3.5886,3.5891,3.5863,3.5897,3.5897,3.5896,3.5896,3.5896,0,3.6629,3.6589,3.6551,3.6489,3.6456,3.6419,3.6366,3.634,3.6302,3.6252,3.6211,3.6157,3.611,3.6045,3.5992,3.5975,3.5952,3.5963,3.5961,3.5952,3.5912,3.5918,3.5982,3.5982,3.5982,3.5982,3.5982,3.5981,3.6653,3.6622,3.6586,3.6534,3.6493,3.645,3.6422,3.6383,3.6342,3.6286,3.6247,3.6206,3.6148,3.6091,3.6045,3.6027,3.6009,3.6025,3.6001,3.5963,3.5956,3.5948,3.5952,3.6023,3.6023,3.6043,3.6043,3.6044]}]]